Location: Janowice
(49.8979°N, 20.8851°E)
Time: 04:56:34
(UTC+02:00)

ISS - Visible Passes

Search period start: 24 April 2019 00:00
Search period end: 04 May 2019 00:00
Orbit: 408 x 410 km, 51.6° (Epoch: 24 April)

Date Brightness Start Highest point End Pass type
(mag) Time Alt. Az. Time Alt. Az. Time Alt. Az.
29 Apr -1.0 04:38:31 10° SSE 04:39:38 11° SE 04:40:45 10° ESE visible
01 May -1.9 04:31:27 10° SSW 04:34:05 22° SE 04:36:45 10° E visible
02 May -1.4 03:41:35 10° S 03:43:24 15° SE 03:45:18 10° ESE visible
03 May -3.0 04:25:29 10° SW 04:28:37 42° SSE 04:31:47 10° E visible
